Weather History for Metropolis, IL

Change the Weather History Date:

Tuesday, July 30, 2013

  Actual Average (KPAH) Record (KPAH)
Temperature  
Mean Temperature 68 °F 79 °F  
Max Temperature 73 °F 89 °F 102 °F (1941)
Min Temperature 64 °F 68 °F 54 °F (1965)
Degree Days  
Heating Degree Days 0 0  
Month to date heating degree days 0  
Since 1 June heating degree days 4  
Since 1 July heating degree days 0  
Cooling Degree Days 4 14  
Month to date cooling degree days 420  
Year to date cooling degree days 912  
Since 1 June cooling degree days 740  
Growing Degree Days 18 (Base 50)    
Moisture  
Dew Point 68 °F    
Average Humidity 96    
Maximum Humidity 100    
Minimum Humidity 73    
Precipitation  
Precipitation 0.46 in 0.12 in 3.27 in (1998)
Month to date precipitation 4.31  
Year to date precipitation 29.59  
Snow  
Snow 0.00 in 0.00 in - ()
Month to date snowfall 0.0  
Since 1 June snowfall 0.0  
Since 1 July snowfall 0.0  
Snow Depth -    
Sea Level Pressure  
Sea Level Pressure 30.10 in    
Wind  
Wind Speed 2 mph (SE)    
Max Wind Speed 9 mph    
Max Gust Speed -    
Visibility 8 miles    
Events Rain    
T = Trace of Precipitation, MM = Missing Value Source: NWS Daily Summary

Daily Weather History Graph

Daily Weather History Graph

Search for Another Location

Airport:

Trip Planner

Search our weather history database for the weather conditions in past years. The results will help you decide how hot, cold, wet, or windy it might be!

Date:

Astronomy

Jul. 30, 2013 Rise Set
Actual Time 5:58 AM CDT 8:03 PM CDT
Civil Twilight 5:29 AM CDT 8:32 PM CDT
Nautical Twilight 4:54 AM CDT 9:08 PM CDT
Astronomical Twilight 4:15 AM CDT 9:46 PM CDT
Moon 12:15 AM CDT (7/30) 2:24 PM CDT (7/30)
Length of Visible Light 15h 03m
Length of Day
14h 05m
Last Quarter, 41% of the Moon is Illuminated
Jul 30
Last Quarter
Aug 6
New
Aug 14
First Quarter
Aug 20
Full
Aug 28
Last Quarter

Hourly Weather History & Observations

Time (CDT) Temp. Dew Point Humidity Pressure Visibility Wind Dir Wind Speed Gust Speed Precip Events Conditions
12:15 AM 65.3 °F 64.6 °F 98% 30.15 in 10.0 mi Calm Calm - N/A   Clear
12:35 AM 64.4 °F 64.4 °F 100% 30.15 in 10.0 mi Calm Calm - N/A   Clear
12:55 AM 65.3 °F 64.8 °F 98% 30.16 in 10.0 mi Calm Calm - N/A   Scattered Clouds
1:15 AM 65.5 °F 65.5 °F 100% 30.15 in 10.0 mi Calm Calm - N/A   Mostly Cloudy
1:35 AM 67.6 °F 65.3 °F 92% 30.15 in 10.0 mi Calm Calm - N/A   Scattered Clouds
1:55 AM 66.7 °F 65.5 °F 96% 30.15 in 10.0 mi Calm Calm - N/A   Clear
2:15 AM 67.1 °F 65.5 °F 95% 30.14 in 10.0 mi Calm Calm - N/A   Clear
2:35 AM 66.6 °F 65.5 °F 96% 30.14 in 10.0 mi Calm Calm - N/A   Clear
2:55 AM 67.1 °F 65.8 °F 96% 30.14 in 10.0 mi Calm Calm - N/A   Clear
3:15 AM 67.1 °F 65.8 °F 96% 30.14 in 10.0 mi Calm Calm - N/A   Clear
3:35 AM 67.1 °F 65.5 °F 95% 30.15 in 10.0 mi Calm Calm - N/A   Scattered Clouds
3:55 AM 67.6 °F 65.1 °F 92% 30.14 in 10.0 mi Calm Calm - N/A   Mostly Cloudy
4:15 AM 68.0 °F 64.4 °F 88% 30.13 in 10.0 mi East 3.5 mph - N/A   Scattered Clouds
4:35 AM 68.0 °F 64.2 °F 88% 30.13 in 10.0 mi Calm Calm - N/A   Scattered Clouds
4:55 AM 68.4 °F 61.7 °F 79% 30.13 in 10.0 mi Calm Calm - N/A   Scattered Clouds
5:15 AM 68.2 °F 62.1 °F 81% 30.13 in 10.0 mi East 3.5 mph - N/A   Mostly Cloudy
5:35 AM 68.4 °F 62.2 °F 81% 30.13 in 10.0 mi Calm Calm - N/A   Mostly Cloudy
5:55 AM 68.7 °F 61.9 °F 79% 30.13 in 10.0 mi ESE 4.6 mph - N/A   Scattered Clouds
6:15 AM 70.0 °F 61.2 °F 73% 30.13 in 10.0 mi SSE 5.8 mph - N/A   Clear
6:35 AM 69.8 °F 61.0 °F 73% 30.14 in 10.0 mi SSE 4.6 mph - N/A   Clear
6:55 AM 69.6 °F 61.2 °F 74% 30.15 in 10.0 mi SSE 6.9 mph - N/A   Scattered Clouds
7:15 AM 68.7 °F 61.5 °F 78% 30.15 in 10.0 mi SSE 5.8 mph - N/A Rain Light Rain
7:35 AM 66.4 °F 63.5 °F 90% 30.14 in 7.0 mi ESE 4.6 mph - 0.13 in Rain Heavy Rain
7:55 AM 65.8 °F 65.5 °F 99% 30.14 in 10.0 mi Calm Calm - 0.14 in   Overcast
8:15 AM 66.6 °F 66.2 °F 99% 30.14 in 10.0 mi Calm Calm - N/A   Overcast
8:35 AM 66.7 °F 66.2 °F 98% 30.14 in 10.0 mi ESE 4.6 mph - N/A   Overcast
8:55 AM 67.1 °F 66.6 °F 98% 30.14 in 10.0 mi East 3.5 mph - N/A   Overcast
9:15 AM 67.3 °F 67.1 °F 99% 30.13 in 5.0 mi East 3.5 mph - N/A   Overcast
9:35 AM 68.0 °F 67.3 °F 98% 30.13 in 10.0 mi Calm Calm - N/A   Overcast
9:55 AM 68.0 °F 67.6 °F 99% 30.13 in 2.5 mi ESE 3.5 mph - 0.06 in Rain Rain
10:15 AM 67.5 °F 67.5 °F 100% 30.12 in 4.0 mi East 4.6 mph - 0.08 in Rain Rain
10:35 AM 67.5 °F 67.5 °F 100% 30.15 in 7.0 mi West 8.1 mph - 0.13 in Rain Light Rain
10:55 AM 68.2 °F 68.0 °F 99% 30.15 in 10.0 mi Calm Calm - 0.13 in Rain Light Rain
11:15 AM 68.2 °F 68.2 °F 100% 30.15 in 10.0 mi Calm Calm - 0.01 in Rain Light Rain
11:55 AM 68.5 °F 68.4 °F 99% 30.15 in 10.0 mi Calm Calm - 0.01 in   Light Drizzle
12:15 PM 68.7 °F 68.4 °F 99% 30.14 in 7.0 mi ESE 3.5 mph - 0.01 in Rain Light Rain
12:35 PM 68.9 °F 68.9 °F 100% 30.13 in 5.0 mi ESE 3.5 mph - 0.02 in Rain Rain
1:15 PM 69.3 °F 69.3 °F 100% 30.12 in 5.0 mi ESE 3.5 mph - 0.02 in Rain Light Rain
1:35 PM 70.0 °F 70.0 °F 100% 30.11 in 5.0 mi SE 3.5 mph - 0.02 in Rain Light Rain
1:55 PM 70.3 °F 70.3 °F 100% 30.08 in 5.0 mi ESE 9.2 mph - 0.02 in   Light Drizzle
2:15 PM 71.2 °F 71.2 °F 100% 30.08 in 7.0 mi SE 4.6 mph - N/A   Overcast
2:35 PM 71.2 °F 71.2 °F 100% 30.08 in 7.0 mi SE 5.8 mph - N/A Rain Light Rain
2:55 PM 71.2 °F 71.2 °F 100% 30.08 in 10.0 mi SE 5.8 mph - N/A   Light Drizzle
3:15 PM 71.8 °F 71.8 °F 100% 30.06 in 10.0 mi SE 4.6 mph - N/A   Overcast
3:35 PM 72.5 °F 72.1 °F 99% 30.06 in 10.0 mi SE 4.6 mph - N/A Rain Light Rain
3:55 PM 72.5 °F 72.5 °F 100% 30.07 in 10.0 mi SSE 4.6 mph - N/A   Overcast
4:15 PM 72.5 °F 72.5 °F 100% 30.07 in 10.0 mi South 3.5 mph - N/A   Overcast
4:35 PM 72.7 °F 72.7 °F 100% 30.07 in 5.0 mi SSE 4.6 mph - 0.01 in Rain Rain
4:55 PM 72.9 °F 72.9 °F 100% 30.07 in 10.0 mi South 4.6 mph - 0.01 in   Overcast
5:15 PM 73.0 °F 73.0 °F 100% 30.06 in 4.0 mi SSE 3.5 mph - 0.01 in Rain Light Rain
5:35 PM 72.9 °F 72.9 °F 100% 30.06 in 3.0 mi SE 3.5 mph - 0.03 in   Drizzle
5:55 PM 72.7 °F 72.7 °F 100% 30.05 in 7.0 mi Calm Calm - 0.04 in   Overcast
6:15 PM 72.5 °F 72.5 °F 100% 30.05 in 10.0 mi SSE 4.6 mph - N/A   Overcast
6:35 PM 72.3 °F 72.3 °F 100% 30.05 in 5.0 mi ESE 3.5 mph - N/A   Light Drizzle
6:55 PM 72.5 °F 72.5 °F 100% 30.04 in 7.0 mi Calm Calm - N/A   Light Drizzle
7:15 PM 72.1 °F 72.1 °F 100% 30.04 in 10.0 mi East 3.5 mph - N/A   Overcast
7:35 PM 72.0 °F 72.0 °F 100% 30.04 in 7.0 mi ESE 4.6 mph - N/A Rain Rain
7:55 PM 71.6 °F 71.6 °F 100% 30.04 in 5.0 mi ESE 3.5 mph - 0.02 in Rain Rain
8:15 PM 71.4 °F 71.4 °F 100% 30.04 in 7.0 mi ESE 3.5 mph - N/A   Overcast
8:35 PM 71.4 °F 71.4 °F 100% 30.04 in 7.0 mi Calm Calm - N/A   Overcast
8:55 PM 71.6 °F 71.6 °F 100% 30.05 in 5.0 mi South 3.5 mph - N/A   Overcast
9:15 PM 71.4 °F 71.4 °F 100% 30.05 in 5.0 mi SSE 4.6 mph - N/A   Overcast
9:35 PM 71.2 °F 71.2 °F 100% 30.05 in 7.0 mi Calm Calm - N/A   Overcast
9:55 PM 71.2 °F 71.2 °F 100% 30.05 in 7.0 mi SE 4.6 mph - N/A   Overcast
10:15 PM 71.2 °F 71.2 °F 100% 30.05 in 7.0 mi SE 4.6 mph - N/A   Overcast
10:35 PM 71.2 °F 71.2 °F 100% 30.05 in 7.0 mi ESE 4.6 mph - N/A   Overcast
10:55 PM 71.2 °F 71.2 °F 100% 30.04 in 10.0 mi Calm Calm - N/A   Overcast
11:15 PM 71.1 °F 71.1 °F 100% 30.04 in 7.0 mi Calm Calm - N/A Rain Rain
11:35 PM 71.1 °F 71.1 °F 100% 30.04 in 10.0 mi Calm Calm - N/A   Overcast
11:55 PM 71.1 °F 71.1 °F 100% 30.04 in 10.0 mi Calm Calm - 0.01 in   Overcast